Regional Weather Roundup
Issued by NWS Sioux Falls, SD

Home | Current Version | Previous Version | Graphics & Text | Print | Product List | Glossary Off
Versions: 1 2 3 4 5 6 7 8 9 10 11 12 13 14 15 16 17 18 19 20 21 22 23 24 25 26 27 28 29 30 31 32 33 34 35 36 37 38 39 40 41 42 43 44 45 46 47 48 49 50

000
ASUS43 KFSD 222102
RWRFSD

WEATHER ROUNDUP FOR SE SOUTH DAKOTA/SW MINNESOTA/NW IOWA
NATIONAL WEATHER SERVICE SIOUX FALLS SD
300 PM CST SAT NOV 22 2014

NOTE: "FAIR" INDICATES FEW OR NO CLOUDS BELOW 12,000 FEET WITH NO
SIGNIFICANT WEATHER AND OR OBSTRUCTIONS TO VISIBILITY.


SDZ038>040-050-052>070-222200-
SOUTHEAST SOUTH DAKOTA

CITY           SKY/WX    TMP DP  RH WIND       PRES   REMARKS
CHAMBERLAIN    NOT AVBL
HURON          MOSUNNY   42  33  70 S15       29.43F
MADISON        FAIR      39  39 100 S17       29.50F
MITCHELL       MOSUNNY   49  36  61 S13       29.47F
SIOUX FALLS    PTSUNNY   44  36  73 S16       29.54F
WINNER         FAIR      62  29  28 SW17      29.40F
YANKTON        CLOUDY    52  34  50 S18G25    29.54F
$$

MNZ071-072-080-081-089-090-097-098-222200-
SOUTHWEST MINNESOTA

CITY           SKY/WX    TMP DP  RH WIND       PRES   REMARKS
FAIRMONT       CLOUDY    37  34  87 S16       29.64F
JACKSON        CLOUDY    37  36  93 S17       29.62F FOG
LUVERNE        PTSUNNY   37  37 100 S12       29.57F FOG
MARSHALL       CLOUDY    37  30  75 S13       29.54F
MONTEVIDEO     PTSUNNY   37  34  87 S16       29.55F
PIPESTONE      CLOUDY    36  36 100 S18       29.53F FOG
REDWOOD FALLS  CLOUDY    37  34  89 S16       29.59F FOG
TRACY          PTSUNNY   38  35  91 S18G24    29.54F FOG
WINDOM         CLOUDY    37  36  93 S13       29.60F FOG
WORTHINGTON    CLOUDY    36  36 100 S18G25    29.59F
$$

IAZ001>003-012>014-020>022-031-032-NEZ013-014-SDZ071-222200-
NORTHWEST IOWA

CITY           SKY/WX    TMP DP  RH WIND       PRES   REMARKS
DENISON        SUNNY     46  43  87 S13       29.66F
ESTHERVILLE    CLOUDY    39  37  92 S18G26    29.64F FOG
SIOUX CITY     MOSUNNY   47  38  71 S15       29.64F
SPENCER        CLOUDY    41  38  89 S15       29.64F FOG
$$

ABBREVIATIONS USED IN REMARKS
   TC - TEMPERATURE IN CELSIUS
  WCI - WIND CHILL INDEX
   HX - HEAT INDEX
  VSB - VISIBILITY




USA.gov is the U.S. government's official web portal to all federal, state and local government web resources and services.